Regional Weather Roundup
Issued by NWS

Home | Current Version | Previous Version | Graphics & Text | Print | Product List | Glossary On
Versions: 1 2 3 4 5 6 7 8 9 10 11 12 13 14 15 16 17 18 19 20 21 22 23 24 25 26 27
000
ASUS45 KBOU 170310
RWRCO

WEATHER ROUNDUP FOR COLORADO
NATIONAL WEATHER SERVICE DENVER/BOULDER CO
800 PM MST SAT DEC 16 2017

NOTE: "FAIR" INDICATES FEW OR NO CLOUDS BELOW 12000 FEET WITH NO
SIGNIFICANT WEATHER AND/OR OBSTRUCTIONS TO VISIBILITY.

COZ001>005-013-030-031-170400-
...NORTHWEST COLORADO...

CITY           SKY/WX    TMP DP  RH WIND       PRES   REMARKS
CRAIG          FAIR      17  12  80 CALM      29.82S
HAYDEN         FAIR      24  16  71 SW5       29.83R WCI  18
MEEKER         FAIR      26  12  55 E5        29.81R WCI  20
RABBIT EARS PA MOCLDY    23  -6  28 W8        29.84R WCI  14
STEAMBOAT SPGS FAIR      27  15  60 CALM      29.80S
WALDEN         FAIR      19  10  68 N5        29.82F WCI  13
$$

COZ006>008-011-170400-
...WEST CENTRAL VALLEYS...

CITY           SKY/WX    TMP DP  RH WIND       PRES   REMARKS
GRAND JUNCTION FAIR      26   6  42 CALM      29.83R
MONTROSE       FAIR      31   9  39 SE9       29.84R WCI  23
EAGLE          MOCLDY    25  14  63 CALM      29.85R
RIFLE          FAIR      30  10  43 W3        29.83R
DELTA          MOCLDY    37   6  28 NE7       29.82R
NUCLA          FAIR      34  -2  21 E6        29.84R WCI  29
$$

COZ017>023-064>068-170400-
...SOUTHWEST COLORADO...

CITY           SKY/WX    TMP DP  RH WIND       PRES   REMARKS
DURANGO        FAIR      33  10  38 VRB3      29.80R
CORTEZ         FAIR      31  10  41 CALM      29.82S
PAGOSA SPRINGS FAIR      28   1  31 CALM      29.83R
TELLURIDE      CLOUDY    33  -5  19 CALM      29.85S
WOLF CREEK PAS CLOUDY    21   1  42 SW12      29.93S WCI   9
$$

COZ009-010-012-014-032>034-037-058>063-170400-
...CENTRAL COLORADO...

CITY           SKY/WX    TMP DP  RH WIND       PRES   REMARKS
ASPEN          MOCLDY    29  16  58 CALM      29.79R
BUENA VISTA    FAIR      22  12  64 CALM      29.84S
COPPER MTN     NOT AVBL
BERTHOUD PASS  CLOUDY    19   9  63 SE8       29.89S WCI   9
COTTONWOOD PAS FAIR      34   7  32 CALM      29.87R
GUNNISON       FAIR      20  10  65 CALM      29.85R
KREMMLING      FAIR      23  18  80 CALM      29.84S
LEADVILLE      MOCLDY    24   5  44 CALM      29.83R
MONARCH PASS   MOCLDY    21   1  42 NE6       29.99S WCI  14
SALIDA         FAIR      32   5  33 CALM      29.92R
SUNLIGHT       MOCLDY    23  -6  28 SW9       29.88R WCI  13
WILKERSON PASS CLOUDY    23   0  36 S7        29.91S WCI  15
$$

COZ069>075-170400-
...SAN LUIS VALLEY/SANGRE DE CRISTO MOUNTAINS...

CITY           SKY/WX    TMP DP  RH WIND       PRES   REMARKS
ALAMOSA        FAIR      20  13  74 N6        29.80R WCI  12
DEL NORTE      FAIR      23   9  55 SW6       29.82R WCI  15
LA VETA PASS   FAIR      21   9  58 N21G28      N/A  WCI   6
SAGUACHE       MOCLDY    21  10  63 N5        29.81R WCI  15
$$

COZ035-036-038>040-170400-
...NORTHERN COLORADO FRONT RANGE...

CITY           SKY/WX    TMP DP  RH WIND       PRES   REMARKS
DENVER INTL AP MOCLDY    30  21  69 E12       29.88R WCI  20
DMNS CITY PARK NOT AVBL
AURORA         MOCLDY    32  20  63 E10       29.88R WCI  23
FRONT RANGE AP MOCLDY    32  25  74 E12G18    29.89R WCI  23
ERIE MUNI ARPT FAIR      34  22  61 N3        29.97R
BOULDER MUN AP FAIR      36  21  55 NE5       29.91R
CENTENNIAL     CLOUDY    34  21  59 E7        29.88R WCI  28
BROOMFIELD     MOCLDY    36  21  55 N6        29.90R
FORT COLLINS   FAIR      34  24  67 E12       29.93R WCI  25
LONGMONT       FAIR      37  24  59 E8        29.95R
$$

COZ041-046-047-076>085-087-088-170400-
...PIKES PEAK/PALMER DIVIDE AND SOUTHERN FOOTHILLS...

CITY           SKY/WX    TMP DP  RH WIND       PRES   REMARKS
COLO. SPRINGS  MOCLDY    35  16  45 NE15      29.86R WCI  25
A. F. ACADEMY  CLOUDY    32  12  43 N10       29.85R WCI  23
SCHRIEVER AFB  MOCLDY    31  16  53 NE13      29.87R WCI  21
CHEYENNE MTN   MOCLDY    35  10  35 N8        29.80R WCI  28
ELLICOTT         N/A    N/A N/A N/A E13       29.85R
FALCON         FAIR      30  15  53 N12       29.87R WCI  20
FORT CARSON    CLOUDY    36  14  40 NE10      29.85R
LIMON          FAIR      29  23  78 NE14      29.89R WCI  18
MONUMENT HILL  FAIR      27  18  69 E6        29.88R WCI  20
CANON CITY     FAIR      36  14  41 E5        29.85R
WALSENBURG     FAIR      34  12  40 CALM      29.87R
TRINIDAD       FAIR      32  14  47 NW8       29.83R WCI  25
$$

COZ042>045-048>051-090-091-170400-
...NORTHEAST COLORADO...

CITY           SKY/WX    TMP DP  RH WIND       PRES   REMARKS
GREELEY ARPT   FAIR      33  24  69 E13       29.93R WCI  24
AKRON          CLOUDY    31  26  82 NE10      29.92R WCI  22
BURLINGTON     FAIR      32  26  78 N15       29.86R WCI  22
WRAY           MOCLDY    32  30  93 N13       29.94R WCI  22
YUMA           CLOUDY    32  28  86 NE14G20   29.93R WCI  22
STERLING       CLOUDY    36  30  80 NE9       29.93S
HOLYOKE        CLOUDY    37  32  81 NE14      29.95R
FORT MORGAN    MOCLDY    32  26  78 NE13      29.93R WCI  22
$$

COZ086-089-092>099-170400-
...SOUTHEAST COLORADO...

CITY           SKY/WX    TMP DP  RH WIND       PRES   REMARKS
PUEBLO         FAIR      35  14  42 NE9       29.85R WCI  28
LA JUNTA       FAIR      37  18  46 N18       29.80R
LAMAR          FAIR      32  15  49 N12       29.76R WCI  23
SPRINGFIELD      N/A     31  15  52 S10       29.72R WCI  22
$$




USA.gov is the U.S. government's official web portal to all federal, state and local government web resources and services.